星链-1554 (STARLINK-1554 )

导读

STARLINK-1554是美国SpaceX星链(Starlink)项目的卫星,于2020年8月7日发射入轨,属于低轨卫星星座成员,目标是为全球提供覆盖广泛的高速卫星互联网服务。星链卫星通过组网构建天基通信系统,可弥补地面网络覆盖盲区,在偏远地区通信、应急联网等场景发挥作用,也引发了天文学观测与太空轨道资源的相关讨论。

Basic Information
目录编号:
46055
目录名称:
STARLINK-1554
国际标识:
2020-055AE
轨道中心:
EARTH
卫星名称:
星链-1554
卫星全名:
星链-1554 (STARLINK-1554 )
卫星状态:
在轨 (已飞行2228 天)
发射日期:
2020-08-07 UTC
国别 :
美国 (US)
星等 :
--
This satellite is enrolled in the Space Conjunction Data Service (SCDS) and the current flight risk assessment level is: No High Risk
Orbit Information
数据来源 国际轨道数据
星历时间: 2026-09-13T12:21:19+0800
11小时前
查看轨道信息
半长轴: 6848.86km
偏心率: 0.000126
轨道倾角: 53.161°
近地点辐角 84.721°
升交点赤经 321.498°
平近点角 275.394°
近地点: 469.86km
远地点: 471.586km
周期: 94.013分钟
每日圈数: 15.317058
Detailed Information
固有亮度:
5
最大亮度:
2.5
卫星平台:
Starlink V1.0
覆盖范围:
全球
运营商:
太空探索技术公司
运营商所在国:
美国
制造商(研发单位):
太空探索技术公司
制造商所在国:
美国
使用方式:
暂无
Satellite Introduction
星链(Starlink)计划是由太空探索技术公司(SpaceX)提出的一个巨型低轨卫星互联网星座项目,计划在2019年至2024年间在太空搭建由约1.2万颗卫星组成的“星链”网络,其中1584颗将部署在地球上空550千米处的近地轨道,并从2020年开始工作。该卫星仍在工作。
2D Orbit Map
3D Orbit Map
Orbit Altitude Analysis Chart
Orbit Inclination Analysis Chart
Orbit Comprehensive Analysis Chart
View Comprehensive Chart
Conjunction Data List
Event ID Objects TCA Miss Dist (km) Collision Risk Probability Collision Risk Index (CRI) Action
CDM_260915-085504-605506-506221
2026-09-15T
08:55:28+0000
1.541 km
极远距离
3.409849E-6 低风险 0.46
CDM_260914-122204-605506-519021
2026-09-14T
12:22:57+0000
2.688 km
极远距离
1.551301E-6 低风险 0.39
CDM_260915-123804-605506-873221
2026-09-15T
12:38:48+0000
2.708 km
极远距离
1.532144E-6 低风险 0.39
CDM_260914-222704-605506-904821
2026-09-14T
22:27:59+0000
2.738 km
极远距离
1.496229E-6 低风险 0.38
CDM_260914-042104-605506-862521
2026-09-14T
04:21:22+0000
2.890 km
极远距离
1.356608E-6 低风险 0.38
CDM_260914-145204-605506-753521
2026-09-14T
14:52:41+0000
2.981 km
极远距离
1.3458E-6 低风险 0.38
Miss Distance Evolution Trend with All Objects
Collision Probability Evolution Trend with All Objects